Location: Tamazert
(32.6352°N, 5.2072°W)
Time: 16:41:44
(UTC+00:00)

Transit 2A Rocket - Pass Details

Date: 09 October 2022
Orbit: 589 x 912 km, 66.7° (Epoch: 07 December)

Event Time Altitude Azimuth Distance (km) Brightness Sun altitude
Rises 13:14:25 0° 342° (NNW) 3,075 7.8 47.9°
Reaches altitude 10° 13:16:46 10° 349° (NNW) 2,205 7.2 47.7°
Maximum altitude 13:21:35 44° 61° (ENE) 1,047 5.9 47.2°
Drops below altitude 10° 13:26:50 10° 133° (SE) 2,402 7.8 46.7°
Sets 13:29:29 0° 140° (SE) 3,381 8.5 46.4°
